Aurora, NE

3:00 AM CDT on July 25, 2017 (GMT -0500)
Aurora Municipal

Weather History for KAUH - March, 2014

Change the Weather History Date:

Thursday, March 27, 2014

  Actual Average Record
Temperature  
Mean Temperature 38 °F -  
Max Temperature 45 °F 58 °F 85 °F (1989)
Min Temperature 30 °F 32 °F 17 °F (2016)
Degree Days  
Heating Degree Days 26    
Moisture  
Dew Point 38 °F    
Average Humidity 96    
Maximum Humidity 100    
Minimum Humidity 81    
Precipitation  
Precipitation 0.07 in - - ()
Sea Level Pressure  
Sea Level Pressure 29.52 in    
Wind  
Wind Speed 17 mph (North)    
Max Wind Speed 31 mph    
Max Gust Speed 43 mph    
Visibility 5 miles    
Events Fog , Rain , Snow    
Averages and records for this station are not official NWS values.
T = Trace of Precipitation, MM = Missing Value Source: NWS Daily Summary

Daily Weather History Graph

Daily Weather History Graph

Search for Another Location

Airport or City:

Trip Planner

Search our weather history database for the weather conditions in past years. The results will help you decide how hot, cold, wet, or windy it might be!

Date:

Astronomy

Mar. 27, 2014 Rise Set
Actual Time 7:23 AM CDT 7:51 PM CDT
Civil Twilight 6:56 AM CDT 8:19 PM CDT
Nautical Twilight 6:23 AM CDT 8:51 PM CDT
Astronomical Twilight 5:50 AM CDT 9:24 PM CDT
Moon 5:17 AM CDT (3/27) 4:39 PM CDT (3/27)
Length of Visible Light 13h 23m
Length of Day
12h 28m
Waning Crescent, 13% of the Moon is Illuminated
Mar 27
Waning Crescent
Mar 30
New
Apr 7
First Quarter
Apr 15
Full
Apr 22
Last Quarter

Hourly Weather History & Observations

Time (CDT) Temp. Windchill Dew Point Humidity Pressure Visibility Wind Dir Wind Speed Gust Speed Precip Events Conditions
12:15 AM 42.8 °F 33.8 °F 42.4 °F 99% 29.46 in 3.0 mi South 21.9 mph 28.8 mph N/A   Overcast
12:35 AM 43.0 °F 34.0 °F 42.8 °F 99% 29.45 in 3.0 mi South 21.9 mph 27.6 mph N/A   Overcast
1:15 AM 43.2 °F 34.2 °F 43.2 °F 100% 29.43 in 3.0 mi South 21.9 mph 27.6 mph N/A   Overcast
1:35 AM 43.3 °F 34.2 °F 43.3 °F 100% 29.41 in 2.5 mi South 23.0 mph 28.8 mph N/A   Overcast
1:55 AM 43.7 °F 34.7 °F 43.7 °F 100% 29.40 in 2.5 mi South 23.0 mph 29.9 mph N/A   Overcast
2:15 AM 43.7 °F 36.0 °F 43.7 °F 100% 29.40 in 2.5 mi South 17.3 mph 26.5 mph N/A   Overcast
2:35 AM 43.9 °F 36.5 °F 43.9 °F 100% 29.39 in 2.5 mi South 16.1 mph 23.0 mph N/A   Overcast
2:55 AM 43.9 °F 37.2 °F 43.9 °F 100% 29.39 in 2.5 mi South 13.8 mph - N/A   Overcast
3:15 AM 44.1 °F 37.7 °F 44.1 °F 100% 29.39 in 2.5 mi South 12.7 mph 19.6 mph N/A   Overcast
3:35 AM 44.2 °F 38.8 °F 44.2 °F 100% 29.39 in 2.5 mi South 10.4 mph 17.3 mph N/A   Overcast
3:55 AM 44.2 °F - 44.2 °F 100% 29.40 in 2.0 mi Calm Calm - N/A Rain Light Rain
4:15 AM 44.4 °F 40.5 °F 44.4 °F 100% 29.38 in 1.8 mi SSE 6.9 mph - N/A   Overcast
4:35 AM 44.2 °F 40.3 °F 44.2 °F 100% 29.36 in 1.2 mi SE 6.9 mph - N/A   Overcast
4:55 AM 44.2 °F 40.3 °F 44.2 °F 100% 29.35 in 1.0 mi ESE 6.9 mph - N/A   Overcast
5:15 AM 44.6 °F 40.2 °F 44.6 °F 100% 29.34 in 0.8 mi ESE 8.1 mph - N/A   Overcast
5:35 AM 44.8 °F 39.9 °F 44.8 °F 100% 29.33 in 0.8 mi ESE 9.2 mph - N/A   Overcast
5:55 AM 44.8 °F 41.0 °F 44.8 °F 100% 29.33 in 0.8 mi ESE 6.9 mph - N/A   Overcast
6:15 AM 44.8 °F 40.4 °F 44.8 °F 100% 29.33 in 0.5 mi ESE 8.1 mph - N/A Fog Fog
6:35 AM 44.6 °F 41.4 °F 44.6 °F 100% 29.33 in 0.5 mi East 5.8 mph - N/A Fog Fog
6:55 AM 44.6 °F 39.7 °F 44.6 °F 100% 29.31 in 0.5 mi East 9.2 mph - N/A Fog Fog
7:15 AM 44.8 °F 39.9 °F 44.8 °F 100% 29.31 in 0.5 mi East 9.2 mph - N/A Fog Fog
7:35 AM 44.8 °F 40.4 °F 44.8 °F 100% 29.32 in 0.5 mi ENE 8.1 mph - N/A Fog Fog
7:55 AM 44.8 °F 40.4 °F 44.8 °F 100% 29.32 in 0.2 mi ENE 8.1 mph - N/A Fog Fog
8:15 AM 44.6 °F 39.7 °F 44.6 °F 100% 29.31 in 0.5 mi East 9.2 mph - 0.01 in Rain Light Rain
8:35 AM 44.6 °F 40.2 °F 44.6 °F 100% 29.31 in 0.5 mi East 8.1 mph - 0.01 in   Light Drizzle
8:55 AM 44.8 °F 41.6 °F 44.8 °F 100% 29.31 in 0.2 mi East 5.8 mph - 0.01 in Fog Fog
9:15 AM 45.1 °F 42.0 °F 45.1 °F 100% 29.30 in 0.2 mi ENE 5.8 mph - N/A Fog Fog
9:35 AM 45.0 °F 42.6 °F 45.0 °F 100% 29.31 in 0.2 mi NE 4.6 mph - N/A Fog Fog
9:55 AM 44.6 °F 38.8 °F 44.6 °F 100% 29.32 in 0.5 mi North 11.5 mph - N/A Fog Fog
10:15 AM 43.9 °F 36.5 °F 43.9 °F 100% 29.34 in 1.2 mi NNW 16.1 mph - 0.01 in Rain Light Rain
10:35 AM 40.3 °F 29.7 °F 40.3 °F 100% 29.36 in 2.0 mi North 25.3 mph 40.3 mph 0.02 in Rain Light Rain
10:55 AM 38.7 °F 26.9 °F 38.7 °F 100% 29.39 in 2.5 mi NNW 28.8 mph 35.7 mph 0.02 in   Overcast
11:15 AM 37.6 °F 25.6 °F 37.6 °F 100% 29.40 in 2.5 mi NNW 27.6 mph 35.7 mph N/A   Overcast
11:35 AM 36.5 °F 24.4 °F 36.5 °F 100% 29.42 in 2.5 mi NW 26.5 mph 34.5 mph N/A   Overcast
11:55 AM 35.2 °F 22.3 °F 35.2 °F 100% 29.43 in 2.0 mi NNW 28.8 mph 34.5 mph 0.01 in   Overcast
12:15 PM 33.6 °F 20.8 °F 33.6 °F 100% 29.45 in 1.0 mi NNW 25.3 mph 33.4 mph N/A Snow Light Snow
12:35 PM 33.4 °F 20.3 °F 33.4 °F 100% 29.46 in 1.2 mi NW 26.5 mph 32.2 mph N/A Snow Light Snow
12:55 PM 33.4 °F 20.8 °F 33.4 °F 100% 29.47 in 1.5 mi NNW 24.2 mph 28.8 mph 0.01 in Snow Light Snow
1:15 PM 33.3 °F 20.6 °F 33.3 °F 100% 29.48 in 2.5 mi NNW 24.2 mph 28.8 mph 0.01 in Snow Light Snow
1:35 PM 33.3 °F 20.6 °F 33.3 °F 100% 29.50 in 2.0 mi NW 24.2 mph 34.5 mph 0.01 in Snow Light Snow
1:55 PM 33.1 °F 18.9 °F 33.1 °F 100% 29.51 in 5.0 mi NNW 31.1 mph 36.8 mph 0.02 in   Overcast
2:15 PM 32.9 °F 19.1 °F 32.9 °F 100% 29.52 in 7.0 mi NNW 28.8 mph 34.5 mph N/A   Overcast
2:35 PM 33.4 °F 19.4 °F 33.4 °F 100% 29.53 in 3.0 mi NNW 31.1 mph 34.5 mph N/A Snow Light Snow
2:55 PM 33.8 °F 20.1 °F 33.8 °F 100% 29.56 in 2.0 mi NNW 29.9 mph 40.3 mph N/A Snow Light Snow
3:15 PM 34.0 °F 20.5 °F 34.0 °F 100% 29.56 in 3.0 mi NNW 28.8 mph 34.5 mph N/A   Overcast
3:35 PM 35.2 °F 22.5 °F 35.2 °F 100% 29.57 in 7.0 mi NNW 27.6 mph 36.8 mph N/A   Overcast
3:55 PM 36.0 °F 22.8 °F 36.0 °F 100% 29.58 in 10.0 mi NNW 31.1 mph 39.1 mph N/A   Overcast
4:15 PM 35.6 °F 22.7 °F 35.4 °F 99% 29.60 in 10.0 mi NNW 28.8 mph 42.6 mph N/A   Overcast
4:35 PM 36.3 °F 23.7 °F 35.2 °F 96% 29.61 in 10.0 mi NNW 28.8 mph 38.0 mph N/A   Overcast
4:55 PM 36.7 °F 23.8 °F 34.0 °F 90% 29.63 in 10.0 mi NNW 31.1 mph 36.8 mph N/A   Overcast
5:15 PM 36.9 °F 24.0 °F 33.1 °F 86% 29.63 in 10.0 mi NNW 31.1 mph 39.1 mph N/A   Overcast
5:35 PM 36.7 °F 24.9 °F 32.5 °F 85% 29.65 in 10.0 mi NNW 25.3 mph 39.1 mph N/A   Overcast
5:55 PM 37.2 °F 25.6 °F 32.4 °F 83% 29.67 in 10.0 mi NNW 25.3 mph 34.5 mph N/A   Overcast
6:15 PM 37.4 °F 25.9 °F 32.9 °F 84% 29.70 in 10.0 mi NNW 25.3 mph 35.7 mph N/A   Overcast
6:35 PM 37.4 °F 25.6 °F 32.2 °F 81% 29.71 in 10.0 mi NNW 26.5 mph 32.2 mph N/A   Overcast
7:15 PM 36.7 °F 26.3 °F 31.6 °F 82% 29.74 in 10.0 mi NNW 19.6 mph 29.9 mph N/A   Overcast
7:55 PM 34.9 °F 23.9 °F 30.2 °F 83% 29.76 in 10.0 mi NNW 19.6 mph 27.6 mph N/A   Scattered Clouds
8:15 PM 34.0 °F 24.6 °F 30.6 °F 87% 29.77 in 10.0 mi NNW 13.8 mph - N/A   Clear
8:35 PM 34.5 °F 25.3 °F 30.4 °F 85% 29.79 in 10.0 mi NNW 13.8 mph - N/A   Clear
8:55 PM 34.0 °F 24.6 °F 30.2 °F 86% 29.81 in 10.0 mi NNW 13.8 mph - N/A   Clear
9:15 PM 33.8 °F 23.9 °F 30.0 °F 86% 29.82 in 10.0 mi NNW 15.0 mph - N/A   Clear
9:35 PM 33.8 °F 23.5 °F 30.0 °F 86% 29.84 in 10.0 mi NNW 16.1 mph - N/A   Scattered Clouds
9:55 PM 33.8 °F 23.9 °F 29.8 °F 85% 29.85 in 10.0 mi NNW 15.0 mph - N/A   Scattered Clouds
10:15 PM 33.8 °F 24.3 °F 29.8 °F 85% 29.85 in 10.0 mi NNW 13.8 mph - N/A   Scattered Clouds
10:35 PM 33.3 °F 25.7 °F 29.7 °F 87% 29.86 in 10.0 mi NNW 9.2 mph - N/A   Scattered Clouds
10:55 PM 32.9 °F 24.7 °F 29.3 °F 87% 29.87 in 10.0 mi NW 10.4 mph - N/A   Scattered Clouds
11:15 PM 32.0 °F 24.2 °F 29.1 °F 89% 29.87 in 10.0 mi NW 9.2 mph - N/A   Clear
11:35 PM 32.0 °F 25.6 °F 28.6 °F 87% 29.88 in 10.0 mi NNW 6.9 mph - N/A   Clear
11:55 PM 30.9 °F 25.2 °F 27.9 °F 88% 29.88 in 10.0 mi NW 5.8 mph - N/A   Clear